Location: Hardenberg
(52.5670°N, 6.6170°E)
Time: 11:58:23
(UTC+02:00)

ISS - Visible Passes

Search period start: 20 April 2024 00:00
Search period end: 30 April 2024 00:00
Orbit: 412 x 418 km, 51.6° (Epoch: 20 April)

Date Brightness Start Highest point End Pass type
(mag) Time Alt. Az. Time Alt. Az. Time Alt. Az.
22 Apr -1.1 05:33:52 10° SSE 05:35:10 12° SE 05:36:28 10° ESE visible
24 Apr -1.9 05:30:52 10° SSW 05:33:32 22° SSE 05:36:13 10° E visible
25 Apr -1.5 04:42:52 11° S 04:44:41 16° SE 04:46:49 10° ESE visible
26 Apr -1.2 03:55:35 11° SE 03:55:51 11° SE 03:56:42 10° ESE visible
26 Apr -2.9 05:28:43 10° SW 05:31:51 38° SSE 05:34:59 10° E visible
27 Apr -2.5 04:41:02 18° SSW 04:42:49 28° SSE 04:45:45 10° E visible
28 Apr -2.1 03:53:34 21° SSE 03:53:47 21° SSE 03:56:21 10° E visible
28 Apr -3.5 05:26:46 10° WSW 05:30:03 59° SSE 05:33:21 10° E visible
29 Apr -1.2 03:06:01 12° ESE 03:06:01 12° ESE 03:06:40 10° ESE visible
29 Apr -3.3 04:38:51 20° SW 04:40:52 47° SSE 04:44:05 10° E visible
